Regional Weather Roundup
Issued by NWS State College, PA

Home | Current Version | Previous Version | Text Only | Print | Product List | Glossary Off
Versions: 1 2 3 4 5 6 7 8 9 10 11 12 13 14 15 16 17 18 19 20 21 22 23 24 25 26 27 28 29 30 31 32 33 34 35 36 37 38 39 40 41 42 43 44 45 46 47 48 49 50

000
ASUS41 KCTP 270510
RWRCTP

REGIONAL WEATHER ROUNDUP
NATIONAL WEATHER SERVICE STATE COLLEGE PA
100 AM EDT FRI MAY 27 2016

Note: "fair" indicates few or no clouds below 12,000 feet with no
significant weather and/or obstructions to visibility.

* = STATION THAT DOES NOT REPORT PRECIPITATION /E.G. RAIN...SNOW...ETC/
    THUNDER OR FOG.

PAZ002>004-007>009-013>016-020>023-029>032-270600-
WESTERN PENNSYLVANIA

CITY           SKY/WX    TMP DP  RH WIND       PRES   REMARKS
ERIE           PTCLDY    74  63  68 S9        30.00R
MEADVILLE      CLOUDY    67  63  87 S3        30.06R
FRANKLIN*      CLOUDY    66  61  82 SW6       30.09R
NEW CASTLE     MOCLDY    70  64  81 SW3       30.06R
BEAVER COUNTY  NOT AVBL
BUTLER*        MOCLDY    70  63  78 SW5       30.10R
PITTSBURGH INT PTCLDY    71  63  75 CALM      30.06R
PITTSBURGH     CLOUDY    70  62  76 S7        30.07R
INDIANA*       PTCLDY    64  63  94 CALM      30.11R
LATROBE        MOCLDY    68  66  94 SW5       30.08S
WASHINGTON CO* PTCLDY    63  61  94 CALM      30.08R
$$

PAZ004>006-010>012-017>019-024>028-033>037-041-042-045-046-049>053-270600-
CENTRAL PENNSYLVANIA

CITY           SKY/WX    TMP DP  RH WIND       PRES   REMARKS
BRADFORD       CLEAR     66  59  78 CALM      30.08R
DUBOIS         CLEAR     66  59  78 S5        30.07R
CLEARFIELD     PTCLDY    64  61  90 CALM      30.08R FOG
JOHNSTOWN      CLOUDY    67  58  72 SW5       30.11R
ALTOONA        CLOUDY    64  62  93 CALM      30.08S FOG
STATE COLLEGE  PTCLDY    67  63  85 W6        30.06S
WILLIAMSPORT   CLOUDY    67  60  78 CALM      30.02F
SELINSGROVE    CLOUDY    69  64  84 CALM      30.03S
FT INDIANTOWN  CLOUDY    71  65  82 NE3       30.04S
CAPITAL CITY   CLOUDY    77  64  64 N5        30.03S
HARRISBURG     CLOUDY    75  65  70 S5        30.02S
YORK           CLOUDY    75  64  68 S6        30.04R
$$

PAZ038>040-043-044-047-048-054-055-060>062-067>071-270600-
EASTERN PENNSYLVANIA

CITY           SKY/WX    TMP DP  RH WIND       PRES   REMARKS
SCRANTON       PTCLDY    73  59  61 NE3       30.05R
MOUNT POCONO   PTCLDY    63  55  75 SW3       30.11S
ALLENTOWN      CLOUDY    75  58  55 SW5       30.04F
QUAKERTOWN*    CLOUDY    73  59  60 CALM      30.07S
READING        CLOUDY    75  61  61 SE3       30.03S
LANCASTER      CLOUDY    74  63  68 S5        30.04S
COATESVILLE    PTCLDY    70  61  73 CALM      30.08S
POTTSTOWN      CLOUDY    72  60  66 CALM      30.06F
BLUE BELL      MOCLDY    72  59  64 S3        30.05S
DOYLESTOWN     PTCLDY    70  55  59 CALM      30.05F
WILLOW GROVE   NOT AVBL
NORTH PHILA    CLOUDY    75  59  57 CALM      30.07S
PHILADELPHIA   MOCLDY    75  61  61 SW6       30.06S
$$




USA.gov is the U.S. government's official web portal to all federal, state and local government web resources and services.